This is the latest recevied weather packets stored in our database for station/object NB9X. If no packets are shown the sender has not sent any weather packets the latest 10 day(s).
| Time | Temp. | Humidity | Pressure | Rain* | Wind** | Luminosity | Snow |
|---|---|---|---|---|---|---|---|
| 1777735097 | 28.33° C | 100% | 1010.9 hPa | 0 mm | - | - | - |
| 1777734797 | 28.33° C | 100% | 1010.9 hPa | 0 mm | - | - | - |
| 1777734497 | 28.89° C | 100% | 1010.8 hPa | 0 mm | - | - | - |
| 1777734197 | 30° C | 100% | 1010.7 hPa | 0 mm | - | - | - |
| 1777733897 | 29.44° C | 100% | 1010.4 hPa | 0 mm | - | - | - |
| 1777733597 | 28.89° C | 100% | 1010.2 hPa | 0 mm | - | - | - |
| 1777733297 | 28.33° C | 100% | 1010.1 hPa | 0 mm | - | - | - |
| 1777732997 | 28.33° C | 100% | 1010.1 hPa | 0 mm | - | - | - |
| 1777732697 | 28.33° C | 100% | 1009.9 hPa | 0 mm | - | - | - |
| 1777732397 | 27.78° C | 100% | 1009.9 hPa | 0 mm | - | - | - |
| 1777732097 | 27.78° C | 100% | 1009.9 hPa | 0 mm | - | - | - |
| 1777731797 | 28.33° C | 100% | 1009.9 hPa | 0 mm | - | - | - |
| 1777731497 | 27.78° C | 100% | 1009.9 hPa | 0 mm | - | - | - |
| 1777731197 | 27.78° C | 100% | 1009.9 hPa | 0 mm | - | - | - |
| 1777730897 | 27.78° C | 100% | 1009.8 hPa | 0 mm | - | - | - |
| 1777730597 | 27.78° C | 100% | 1009.9 hPa | 0 mm | - | - | - |
| 1777730297 | 27.78° C | 100% | 1009.8 hPa | 0 mm | - | - | - |
| 1777729997 | 27.22° C | 100% | 1009.8 hPa | 0 mm | - | - | - |
| 1777729841 | 27.78° C | 100% | 1009.7 hPa | 0 mm | - | - | - |
| 1777729697 | 27.78° C | 100% | 1009.9 hPa | 0 mm | - | - | - |
| 1777729397 | 27.78° C | 100% | 1009.7 hPa | 0 mm | - | - | - |
| 1777729097 | 27.78° C | 100% | 1009.7 hPa | 0 mm | - | - | - |
| 1777728797 | 26.67° C | 100% | 1009.5 hPa | 0 mm | - | - | - |
| 1777728497 | 26.67° C | 100% | 1009.3 hPa | 0 mm | - | - | - |
| 1777728197 | 26.67° C | 100% | 1009.5 hPa | 0 mm | - | - | - |
* Rain latest hour (hover to see other rain measurements)
** Current wind speed in m/s (hover to see current wind gust speed)